K9NZF-2 Weather Reports


time (UTC)temp
C
wind
direction
speed
KPH
gust
KPH
rain 1hr
cm
rain 24hr
cm
rain mn
cm
humidity
%
barometer
mb
20190526222706 23 315 3.2 9.7 0.00 0.41 0.41 71
20190526222206 23 333 3.2 9.7 0.00 0.41 0.41 71
20190526221706 23 272 1.6 9.7 0.00 0.41 0.41 72
20190526221208 23 300 3.2 11.3 0.00 0.41 0.41 71
20190526220705 23 311 3.2 12.9 0.00 0.41 0.41 71
20190526220208 23 290 4.8 12.9 0.00 0.41 0.41 71
20190526214707 24 302 3.2 11.3 0.00 0.41 0.41 71
20190526214206 24 323 4.8 8.0 0.00 0.41 0.41 70
20190526213208 24 309 4.8 9.7 0.00 0.41 0.41 74
20190526212706 24 11 4.8 9.7 0.00 0.41 0.41 71
20190526211707 23 319 3.2 9.7 0.00 0.41 0.41 71
20190526205716 24 314 4.8 12.9 0.00 0.41 0.41 70
20190526205212 24 302 4.8 12.9 0.00 0.41 0.41 70
20190526204212 25 307 4.8 16.1 0.00 0.41 0.41 69
20190526203706 25 49 4.8 16.1 0.00 0.41 0.41 69
20190526203206 25 265 4.8 14.5 0.00 0.41 0.41 69 1016.1
20190526201706 25 314 6.4 17.7 0.00 0.41 0.41 68
20190526201206 25 312 6.4 17.7 0.00 0.43 0.41 67
20190526200706 25 321 4.8 12.9 0.00 0.48 0.41 66
20190526200205 25 10 3.2 12.9 0.00 0.51 0.41 66
20190526195706 25 310 3.2 12.9 0.00 0.51 0.41 67
20190526195206 25 309 3.2 8.0 0.00 0.51 0.41 65
20190526194706 25 323 1.6 8.0 0.00 0.51 0.41 70
20190526191707 24 320 1.6 9.7 0.00 0.51 0.41 66
20190526191209 24 277 3.2 9.7 0.00 0.53 0.41 67
20190526190706 24 298 3.2 9.7 0.00 0.56 0.41 69
20190526190206 24 21 1.6 4.8 0.00 0.97 0.41 71
20190526185705 23 5 0.0 4.8 0.00 1.37 0.41 74
20190526185206 23 272 0.0 4.8 0.00 1.37 0.41 72
20190526182706 23 279 0.0 4.8 0.00 1.37 0.41 72
20190526182206 23 319 1.6 9.7 0.00 1.37 0.41 73
20190526181708 24 297 1.6 9.7 0.00 1.37 0.41 70
20190526181211 24 294 1.6 9.7 0.00 1.37 0.41 73
20190526174210 24 302 1.6 8.0 0.00 1.37 0.41 74
20190526173705 24 245 1.6 14.5 0.00 1.37 0.41 72
20190526173206 24 288 3.2 14.5 0.00 1.37 0.41 72
20190526172706 24 1 3.2 11.3 0.00 1.37 0.41 72
20190526172205 24 283 1.6 11.3 0.00 1.37 0.41 74
20190526170715 24 257 1.6 8.0 0.00 1.37 0.41 70
20190526165708 24 317 1.6 6.4 0.00 1.37 0.41 70
20190526165207 24 333 1.6 6.4 0.00 1.37 0.41 71
20190526164707 23 333 1.6 9.7 0.00 1.37 0.41 72
20190526164207 24 334 1.6 9.7 0.00 1.37 0.41 71
20190526163706 24 255 1.6 11.3 0.00 1.37 0.41 73
20190526162709 24 357 4.8 11.3 0.00 1.37 0.41 70
20190526160707 23 306 4.8 11.3 0.00 1.37 0.41 72
20190526160213 23 317 3.2 8.0 0.00 1.37 0.41 73
20190526155707 23 311 1.6 8.0 0.00 1.37 0.41 74
20190526155211 23 313 1.6 8.0 0.00 1.37 0.41 77
20190526154708 23 315 1.6 8.0 0.00 1.37 0.41 73
20190526152705 23 300 0.0 8.0 0.00 1.37 0.41 78
20190526152205 22 310 0.0 6.4 0.00 1.37 0.41 76
20190526151210 22 270 0.0 3.2 0.00 1.37 0.41 79
20190526150710 22 240 0.0 3.2 0.00 1.37 0.41 83
20190526150206 22 247 0.0 3.2 0.00 1.37 0.41 82
20190526144708 22 169 0.0 3.2 0.00 1.37 0.41 84
20190526143709 22 233 1.6 6.4 0.00 1.37 0.41 86
20190526143205 22 330 0.0 6.4 0.00 1.37 0.41 87
20190526142207 21 305 0.0 1.6 0.00 1.37 0.41 88
20190526141710 21 291 0.0 1.6 0.00 1.37 0.41 88
20190526141214 21 300 0.0 0.0 0.00 1.37 0.41 88
20190526140707 21 292 0.0 0.0 0.00 1.37 0.41 90
20190526140209 21 304 0.0 1.6 0.00 1.37 0.41 91
20190526135706 20 304 0.0 1.6 0.00 1.37 0.41 91
20190526134707 20 304 0.0 1.6 0.00 1.37 0.41 92
20190526134207 20 302 0.0 1.6 0.00 1.37 0.41 92
20190526133705 20 326 0.0 1.6 0.00 1.37 0.41 93
20190526133207 20 295 0.0 1.6 0.00 1.37 0.41 94
20190526130711 19 296 0.0 4.8 0.00 1.37 0.41 94
20190526130205 19 181 0.0 4.8 0.00 1.37 0.41 95
20190526125205 19 144 0.0 4.8 0.00 1.37 0.41 95
20190526123710 18 202 1.6 6.4 0.00 1.37 0.41 96
20190526123209 18 153 1.6 6.4 0.00 1.37 0.41 96
20190526122710 18 157 0.0 4.8 0.00 1.37 0.41 96
20190526122206 18 136 0.0 4.8 0.00 1.37 0.41 96
20190526121708 18 188 0.0 6.4 0.00 1.37 0.41 96
20190526120706 18 129 1.6 6.4 0.00 1.37 0.41 96 1016.7
20190526115707 18 136 0.0 8.0 0.00 1.37 0.41 96
20190526114707 17 152 1.6 8.0 0.00 1.37 0.41 96
20190526114206 17 144 1.6 6.4 0.00 1.37 0.41 96
20190526113706 17 144 1.6 4.8 0.03 1.37 0.41 96
20190526112206 17 133 0.0 6.4 0.03 1.37 0.41 96
20190526111707 17 131 1.6 6.4 0.03 1.37 0.41 96
20190526105711 17 116 0.0 8.0 0.05 1.37 0.41 96
20190526105207 18 120 0.0 8.0 0.05 1.37 0.41 96
20190526104710 18 122 0.0 1.6 0.15 1.37 0.41 96
20190526104207 18 65 0.0 4.8 0.25 1.37 0.41 95
20190526102711 18 49 0.0 3.2 0.25 1.35 0.38 95
20190526102207 18 68 0.0 1.6 0.25 1.35 0.38 95
20190526101707 18 30 0.0 8.0 0.25 1.35 0.38 95
20190526101208 18 32 1.6 14.5 0.25 1.35 0.38 94
20190526095710 18 321 9.7 27.4 0.36 1.32 0.36 93
20190526094707 19 318 14.5 29.0 0.18 1.14 0.18 90
20190526094208 20 288 12.9 29.0 0.15 1.12 0.15 88
20190526093706 21 302 9.7 29.0 0.13 1.09 0.13 89
20190526092705 21 235 3.2 17.7 0.13 1.09 0.13 93
20190526090707 22 291 3.2 12.9 0.13 1.09 0.13 90
20190526090205 22 207 4.8 14.5 0.03 0.99 0.03 90
20190526085208 22 211 4.8 19.3 0.00 0.97 0.00 90
20190526082710 21 210 3.2 6.4 0.00 0.97 0.00 91
20190526082207 21 193 3.2 6.4 0.00 0.97 0.00 91
20190526081210 21 196 3.2 9.7 0.00 0.97 0.00 90
20190526075708 22 216 1.6 8.0 0.00 0.97 0.00 90
20190526074710 22 206 1.6 8.0 0.00 0.97 0.00 90
20190526073208 21 212 1.6 6.4 0.00 0.97 0.00 90 1014.9
20190526072707 21 211 1.6 6.4 0.00 0.97 0.00 89
20190526072208 22 230 1.6 8.0 0.00 0.97 0.00 89
20190526070707 22 185 1.6 9.7 0.00 0.97 0.00 88
20190526065708 22 219 3.2 11.3 0.00 0.97 0.00 88
20190526065214 22 272 3.2 9.7 0.00 0.97 0.00 88
20190526064707 22 226 3.2 9.7 0.00 0.97 0.00 88
20190526064209 22 224 3.2 9.7 0.00 0.97 0.00 88
20190526062707 22 232 3.2 9.7 0.00 0.97 0.00 89
20190526062206 22 212 3.2 12.9 0.00 0.97 0.00 89
20190526061206 22 167 3.2 9.7 0.00 0.97 0.00 88
20190526060705 22 206 3.2 9.7 0.00 0.97 0.00 88
20190526060207 22 220 3.2 9.7 0.00 0.97 0.00 88
20190526055205 22 219 3.2 8.0 0.00 0.97 0.00 88
20190526054208 22 200 4.8 9.7 0.00 0.97 0.00 87
20190526052705 22 223 3.2 9.7 0.00 0.97 0.00 86
20190526051705 22 188 3.2 9.7 0.00 0.97 0.00 86
20190526050705 21 211 1.6 8.0 0.00 0.97 0.00 86
20190526045706 21 205 3.2 6.4 0.00 0.97 0.00 86
20190526045211 21 225 1.6 6.4 0.00 0.97 0.00 86
20190526044210 21 188 1.6 8.0 0.00 0.97 0.00 84 1015.7
20190526042711 21 188 1.6 3.2 0.00 0.97 0.00 83
20190526041707 21 171 0.0 3.2 0.00 0.97 0.00 82
20190526041205 21 191 0.0 3.2 0.00 0.97 0.00 82
20190526034707 22 187 0.0 1.6 0.00 0.97 0.97 80 1015.5
20190526034209 22 187 0.0 1.6 0.00 0.97 0.97 79
20190526033710 22 187 0.0 1.6 0.00 0.97 0.97 79
20190526031708 22 228 1.6 6.4 0.00 0.97 0.97 78
20190526030709 22 183 1.6 6.4 0.00 0.97 0.97 79
20190526025706 22 192 1.6 3.2 0.00 0.97 0.97 78
20190526025205 22 167 0.0 3.2 0.00 0.97 0.97 78
20190526024707 22 188 0.0 3.2 0.00 0.97 0.97 79
20190526023209 23 212 0.0 3.2 0.00 0.97 0.97 78
20190526022706 23 213 0.0 4.8 0.00 0.97 0.97 76
20190526022205 23 214 0.0 6.4 0.00 0.97 0.97 76
20190526021206 23 218 1.6 6.4 0.00 0.97 0.97 74
20190526020715 23 204 1.6 8.0 0.00 0.97 0.97 74 1015.2
20190526015709 23 207 1.6 4.8 0.00 0.97 0.97 75
20190526014208 23 209 0.0 4.8 0.00 0.97 0.97 76
20190526013705 24 190 1.6 4.8 0.00 0.97 0.97 77
20190526012707 24 200 1.6 6.4 0.00 0.97 0.97 78
20190526012206 24 210 1.6 8.0 0.00 0.97 0.97 79 1015.3
20190526011707 24 213 1.6 8.0 0.00 0.97 0.97 80
20190526011207 24 209 1.6 8.0 0.00 0.97 0.97 81
20190526010706 24 215 0.0 4.8 0.00 0.97 0.97 82
20190526004706 25 212 1.6 8.0 0.00 0.97 0.97 82
20190526004207 25 214 1.6 8.0 0.00 0.97 0.97 82
20190526002705 25 226 0.0 3.2 0.00 0.97 0.97 82
20190526001705 25 219 0.0 3.2 0.00 0.97 0.97 82
20190525234707 26 217 3.2 9.7 0.00 0.97 0.97 79
20190525234211 26 155 1.6 6.4 0.00 0.97 0.97 79
20190525233711 26 214 1.6 8.0 0.00 0.97 0.97 78
20190525233208 26 214 3.2 8.0 0.00 0.97 0.97 78
20190525232710 26 204 1.6 8.0 0.00 0.97 0.97 79
20190525225206 26 212 3.2 9.7 0.00 0.97 0.97 80
20190525224708 26 200 1.6 4.8 0.00 0.97 0.97 79